| time (UTC) | temp F | wind direction | speed MPH | gust MPH | rain 1hr in | rain 24hr in | rain mn in | humidity % | barometer mb |
| 20260901005212 | 81 | 206 | 0.0 | 0.0 | 0.00 | 0.00 | 0.00 | 70 | 1010.0 |
| 20260901005031 | 81 | 206 | 0.0 | 0.0 | 0.00 | 0.00 | 0.00 | 70 | 1010.0 |
| 20260901005000 | 81 | 206 | 0.0 | 0.0 | 0.00 | 0.00 | 0.00 | 70 | 1010.0 |
| 20260901004500 | 81 | 206 | 0.0 | 0.0 | 0.00 | 0.00 | 0.00 | 69 | 1010.0 |
| 20260901003501 | 81 | 258 | 0.0 | 0.0 | 0.00 | 0.00 | 0.00 | 67 | 1009.9 |
| 20260901003212 | 82 | 258 | 0.0 | 0.0 | 0.00 | 0.00 | 0.00 | 66 | 1009.8 |
| 20260901003012 | 82 | 258 | 0.0 | 0.0 | 0.00 | 0.00 | 0.00 | 66 | 1009.8 |
| 20260901002501 | 82 | 258 | 0.0 | 3.0 | 0.00 | 0.00 | 0.00 | 65 | 1009.8 |
| 20260901001503 | 83 | 286 | 0.0 | 3.0 | 0.00 | 0.00 | 0.00 | 63 | 1009.8 |
| 20260831235624 | 84 | 286 | 0.0 | 4.0 | 0.00 | 0.00 | 0.00 | 62 | 1009.7 |
| 20260831235542 | 84 | 286 | 0.0 | 4.0 | 0.00 | 0.00 | 0.00 | 62 | 1009.7 |
| 20260831235500 | 84 | 286 | 0.0 | 4.0 | 0.00 | 0.00 | 0.00 | 62 | 1009.7 |
| 20260831235128 | 84 | 253 | 0.0 | 7.0 | 0.00 | 0.00 | 0.00 | 61 | 1009.7 |
| 20260831235050 | 84 | 253 | 0.0 | 7.0 | 0.00 | 0.00 | 0.00 | 61 | 1009.7 |
| 20260831235000 | 84 | 253 | 0.0 | 7.0 | 0.00 | 0.00 | 0.00 | 61 | 1009.7 |
| 20260831234750 | 85 | 232 | 0.0 | 8.0 | 0.00 | 0.00 | 0.00 | 61 | 1009.7 |
| 20260831234500 | 85 | 232 | 0.0 | 8.0 | 0.00 | 0.00 | 0.00 | 61 | 1009.7 |
| 20260831234005 | 84 | 344 | 0.0 | 0.0 | 0.00 | 0.00 | 0.00 | 57 | 1009.7 |
| 20260831233502 | 84 | 344 | 0.0 | 8.0 | 0.00 | 0.00 | 0.00 | 56 | 1009.7 |
| 20260831233001 | 85 | 8 | 0.0 | 5.0 | 0.00 | 0.00 | 0.00 | 56 | 1009.7 |
| 20260831232002 | 85 | 278 | 2.0 | 5.0 | 0.00 | 0.00 | 0.00 | 57 | 1009.6 |
| 20260831231500 | 85 | 338 | 6.0 | 8.0 | 0.00 | 0.00 | 0.00 | 56 | 1009.6 |
| 20260831231000 | 86 | 302 | 0.0 | 4.0 | 0.00 | 0.00 | 0.00 | 55 | 1009.5 |
| 20260831230502 | 86 | 7 | 0.0 | 7.0 | 0.00 | 0.00 | 0.00 | 54 | 1009.5 |
| 20260831230005 | 86 | 1 | 4.0 | 8.0 | 0.00 | 0.00 | 0.00 | 53 | 1009.6 |
| 20260831225533 | 86 | 326 | 3.0 | 8.0 | 0.00 | 0.00 | 0.00 | 54 | 1009.6 |
| 20260831225501 | 86 | 326 | 3.0 | 8.0 | 0.00 | 0.00 | 0.00 | 54 | 1009.6 |
| 20260831225000 | 86 | 272 | 6.0 | 8.0 | 0.00 | 0.00 | 0.00 | 53 | 1009.7 |
| 20260831224831 | 87 | 268 | 9.0 | 9.0 | 0.00 | 0.00 | 0.00 | 51 | 1009.5 |
| 20260831224505 | 87 | 358 | 5.0 | 9.0 | 0.00 | 0.00 | 0.00 | 51 | 1009.5 |
| 20260831224005 | 87 | 268 | 9.0 | 9.0 | 0.00 | 0.00 | 0.00 | 51 | 1009.5 |
| 20260831223502 | 87 | 261 | 2.0 | 9.0 | 0.00 | 0.00 | 0.00 | 50 | 1009.6 |
| 20260831223000 | 87 | 8 | 1.0 | 7.0 | 0.00 | 0.00 | 0.00 | 51 | 1009.5 |
| 20260831222506 | 88 | 355 | 0.0 | 5.0 | 0.00 | 0.00 | 0.00 | 51 | 1009.4 |
| 20260831221501 | 89 | 1 | 0.0 | 5.0 | 0.00 | 0.00 | 0.00 | 50 | 1009.4 |
| 20260831221002 | 88 | 260 | 6.0 | 6.0 | 0.00 | 0.00 | 0.00 | 49 | 1009.3 |
| 20260831220505 | 87 | 337 | 0.0 | 9.0 | 0.00 | 0.00 | 0.00 | 50 | 1009.2 |
| 20260831215505 | 89 | 288 | 4.0 | 6.0 | 0.00 | 0.00 | 0.00 | 50 | 1009.2 |
| 20260831214504 | 88 | 312 | 0.0 | 0.0 | 0.00 | 0.00 | 0.00 | 53 | 1009.1 |
| 20260831214132 | 88 | 312 | 0.0 | 7.0 | 0.00 | 0.00 | 0.00 | 52 | 1009.0 |
| 20260831214002 | 88 | 312 | 0.0 | 7.0 | 0.00 | 0.00 | 0.00 | 52 | 1009.0 |
| 20260831213519 | 89 | 306 | 0.0 | 6.0 | 0.00 | 0.00 | 0.00 | 51 | 1009.0 |
| 20260831212241 | 89 | 348 | 0.0 | 4.0 | 0.00 | 0.00 | 0.00 | 51 | 1008.9 |
| 20260831212002 | 89 | 348 | 0.0 | 4.0 | 0.00 | 0.00 | 0.00 | 51 | 1008.9 |
| 20260831211514 | 88 | 288 | 0.0 | 8.0 | 0.00 | 0.00 | 0.00 | 53 | 1009.0 |
| 20260831210502 | 88 | 358 | 0.0 | 5.0 | 0.00 | 0.00 | 0.00 | 51 | 1008.8 |
| 20260831205503 | 88 | 312 | 3.0 | 9.0 | 0.00 | 0.00 | 0.00 | 54 | 1008.9 |
| 20260831204509 | 87 | 312 | 0.0 | 6.0 | 0.00 | 0.00 | 0.00 | 55 | 1008.8 |
| 20260831202510 | 87 | 315 | 4.0 | 7.0 | 0.00 | 0.00 | 0.00 | 56 | 1008.9 |
| 20260831202010 | 87 | 344 | 2.0 | 9.0 | 0.00 | 0.00 | 0.00 | 56 | 1008.9 |
| 20260831201516 | 88 | 337 | 0.0 | 10.0 | 0.00 | 0.00 | 0.00 | 55 | 1009.0 |
| 20260831201306 | 87 | 247 | 0.0 | 7.0 | 0.00 | 0.00 | 0.00 | 56 | 1008.9 |
| 20260831201013 | 87 | 247 | 0.0 | 7.0 | 0.00 | 0.00 | 0.00 | 56 | 1008.9 |
| 20260831200010 | 87 | 319 | 2.0 | 7.0 | 0.00 | 0.00 | 0.00 | 58 | 1008.8 |
| 20260831195510 | 87 | 9 | 0.0 | 10.0 | 0.00 | 0.00 | 0.00 | 61 | 1008.7 |
| 20260831195012 | 86 | 4 | 0.0 | 0.0 | 0.00 | 0.00 | 0.00 | 63 | 1008.7 |
| 20260831194936 | 86 | 4 | 0.0 | 10.0 | 0.00 | 0.00 | 0.00 | 61 | 1008.7 |
| 20260831194509 | 86 | 4 | 0.0 | 10.0 | 0.00 | 0.00 | 0.00 | 61 | 1008.7 |
| 20260831193510 | 86 | 265 | 0.0 | 8.0 | 0.00 | 0.00 | 0.00 | 61 | 1008.7 |
| 20260831192324 | 86 | 28 | 0.0 | 0.0 | 0.00 | 0.00 | 0.00 | 62 | 1008.6 |
| 20260831192010 | 86 | 28 | 0.0 | 0.0 | 0.00 | 0.00 | 0.00 | 62 | 1008.6 |
| 20260831191509 | 86 | 28 | 0.0 | 7.0 | 0.00 | 0.00 | 0.00 | 62 | 1008.6 |
| 20260831185509 | 85 | 274 | 1.0 | 3.0 | 0.00 | 0.00 | 0.00 | 65 | 1008.6 |
| 20260831185013 | 85 | 358 | 0.0 | 9.0 | 0.00 | 0.00 | 0.00 | 64 | 1008.6 |
| 20260831184509 | 85 | 333 | 0.0 | 8.0 | 0.00 | 0.00 | 0.00 | 63 | 1008.5 |
| 20260831175731 | 83 | 350 | 3.0 | 7.0 | 0.00 | 0.00 | 0.00 | 72 | 1008.7 |
| 20260831175509 | 83 | 350 | 3.0 | 7.0 | 0.00 | 0.00 | 0.00 | 72 | 1008.7 |
| 20260831174509 | 83 | 67 | 3.0 | 6.0 | 0.00 | 0.00 | 0.00 | 77 | 1008.8 |
| 20260831173645 | 83 | 284 | 0.0 | 6.0 | 0.00 | 0.00 | 0.00 | 77 | 1008.8 |
| 20260831173559 | 83 | 284 | 0.0 | 6.0 | 0.00 | 0.00 | 0.00 | 77 | 1008.8 |
| 20260831173509 | 83 | 284 | 0.0 | 6.0 | 0.00 | 0.00 | 0.00 | 77 | 1008.8 |
| 20260831172010 | 82 | 57 | 5.0 | 9.0 | 0.00 | 0.00 | 0.00 | 79 | 1009.0 |
| 20260831171509 | 82 | 286 | 3.0 | 7.0 | 0.00 | 0.00 | 0.00 | 80 | 1009.1 |
| 20260831164511 | 81 | 340 | 4.0 | 10.0 | 0.00 | 0.00 | 0.00 | 79 | 1009.2 |
| 20260831164011 | 81 | 286 | 3.0 | 10.0 | 0.00 | 0.00 | 0.00 | 80 | 1009.1 |
| 20260831163009 | 81 | 279 | 4.0 | 11.0 | 0.00 | 0.00 | 0.00 | 80 | 1009.1 |
| 20260831162509 | 81 | 345 | 7.0 | 8.0 | 0.00 | 0.00 | 0.00 | 81 | 1009.0 |
| 20260831162009 | 81 | 1 | 5.0 | 8.0 | 0.00 | 0.00 | 0.00 | 80 | 1008.9 |
| 20260831161540 | 81 | 336 | 6.0 | 10.0 | 0.00 | 0.00 | 0.00 | 81 | 1008.9 |
| 20260831161509 | 81 | 336 | 6.0 | 10.0 | 0.00 | 0.00 | 0.00 | 81 | 1008.9 |
| 20260831161009 | 81 | 30 | 4.0 | 10.0 | 0.00 | 0.00 | 0.00 | 81 | 1008.7 |
| 20260831160517 | 81 | 333 | 7.0 | 8.0 | 0.00 | 0.00 | 0.00 | 81 | 1008.7 |
| 20260831155510 | 81 | 286 | 2.0 | 8.0 | 0.00 | 0.00 | 0.00 | 82 | 1008.7 |
| 20260831154518 | 81 | 334 | 3.0 | 8.0 | 0.00 | 0.00 | 0.00 | 83 | 1008.7 |
| 20260831154016 | 81 | 289 | 3.0 | 11.0 | 0.00 | 0.00 | 0.00 | 82 | 1008.8 |
| 20260831153602 | 81 | 282 | 2.0 | 9.0 | 0.00 | 0.00 | 0.00 | 83 | 1008.7 |
| 20260831153509 | 81 | 282 | 2.0 | 9.0 | 0.00 | 0.00 | 0.00 | 83 | 1008.7 |
| 20260831144523 | 79 | 285 | 3.0 | 6.0 | 0.00 | 0.00 | 0.00 | 90 | 1008.2 |
| 20260831144053 | 78 | 267 | 0.0 | 5.0 | 0.00 | 0.00 | 0.00 | 91 | 1008.1 |
| 20260831144021 | 78 | 267 | 0.0 | 5.0 | 0.00 | 0.00 | 0.00 | 91 | 1008.1 |
| 20260831143009 | 78 | 261 | 0.0 | 7.0 | 0.00 | 0.00 | 0.00 | 92 | 1008.2 |
| 20260831141009 | 76 | 298 | 0.0 | 4.0 | 0.00 | 0.00 | 0.00 | 95 | 1007.7 |
| 20260831140509 | 76 | 293 | 4.0 | 8.0 | 0.00 | 0.00 | 0.00 | 95 | 1007.7 |
| 20260831140048 | 76 | 315 | 5.0 | 6.0 | 0.00 | 0.00 | 0.00 | 96 | 1007.7 |
| 20260831140010 | 76 | 315 | 5.0 | 6.0 | 0.00 | 0.00 | 0.00 | 96 | 1007.7 |
| 20260831135009 | 75 | 296 | 4.0 | 5.0 | 0.00 | 0.00 | 0.00 | 98 | 1007.5 |
| 20260831134719 | 75 | 286 | 0.0 | 4.0 | 0.00 | 0.00 | 0.00 | 98 | 1007.5 |
| 20260831134605 | 75 | 286 | 0.0 | 4.0 | 0.00 | 0.00 | 0.00 | 98 | 1007.5 |
| 20260831134513 | 75 | 286 | 0.0 | 4.0 | 0.00 | 0.00 | 0.00 | 98 | 1007.5 |
| 20260831134009 | 75 | 261 | 0.0 | 7.0 | 0.00 | 0.00 | 0.00 | 98 | 1007.5 |
| 20260831131509 | 74 | 219 | 5.0 | 8.0 | 0.00 | 0.00 | 0.00 | 99 | 1007.2 |
| 20260831125009 | 72 | 278 | 0.0 | 6.0 | 0.00 | 0.00 | 0.00 | 99 | 1006.8 |
| 20260831124510 | 72 | 219 | 0.0 | 3.0 | 0.00 | 0.00 | 0.00 | 99 | 1006.7 |
| 20260831123541 | 72 | 257 | 0.0 | 0.0 | 0.00 | 0.00 | 0.00 | 99 | 1006.8 |
| 20260831123509 | 72 | 257 | 0.0 | 0.0 | 0.00 | 0.00 | 0.00 | 99 | 1006.8 |
| 20260831122009 | 71 | 257 | 0.0 | 0.0 | 0.00 | 0.00 | 0.00 | 99 | 1006.6 |
| 20260831121509 | 71 | 257 | 0.0 | 0.0 | 0.00 | 0.00 | 0.00 | 99 | 1006.6 |
| 20260831121009 | 71 | 257 | 0.0 | 0.0 | 0.00 | 0.00 | 0.00 | 99 | 1006.5 |
| 20260831120509 | 71 | 257 | 0.0 | 0.0 | 0.00 | 0.00 | 0.00 | 99 | 1006.5 |
| 20260831120010 | 71 | 257 | 0.0 | 0.0 | 0.00 | 0.00 | 0.00 | 99 | 1006.5 |
| 20260831114009 | 71 | 257 | 0.0 | 0.0 | 0.00 | 0.00 | 0.00 | 99 | 1006.2 |
| 20260831113509 | 71 | 257 | 0.0 | 0.0 | 0.00 | 0.00 | 0.00 | 99 | 1006.2 |
| 20260831113009 | 71 | 257 | 0.0 | 0.0 | 0.00 | 0.00 | 0.00 | 99 | 1006.1 |
| 20260831112009 | 72 | 257 | 0.0 | 0.0 | 0.00 | 0.00 | 0.00 | 99 | 1006.0 |
| 20260831111512 | 72 | 257 | 0.0 | 0.0 | 0.00 | 0.00 | 0.00 | 99 | 1005.9 |
| 20260831110510 | 72 | 257 | 0.0 | 0.0 | 0.00 | 0.00 | 0.00 | 99 | 1005.7 |
| 20260831105509 | 72 | 257 | 0.0 | 0.0 | 0.00 | 0.00 | 0.00 | 99 | 1005.6 |
| 20260831104511 | 72 | 257 | 0.0 | 0.0 | 0.00 | 0.00 | 0.00 | 99 | 1005.4 |
| 20260831103509 | 73 | 257 | 0.0 | 0.0 | 0.00 | 0.00 | 0.00 | 99 | 1005.5 |
| 20260831103009 | 73 | 257 | 0.0 | 0.0 | 0.00 | 0.00 | 0.00 | 99 | 1005.5 |
| 20260831102509 | 73 | 257 | 0.0 | 5.0 | 0.00 | 0.00 | 0.00 | 99 | 1005.6 |
| 20260831102008 | 73 | 250 | 0.0 | 0.0 | 0.00 | 0.00 | 0.00 | 99 | 1005.6 |
| 20260831100541 | 73 | 250 | 0.0 | 0.0 | 0.00 | 0.00 | 0.00 | 99 | 1005.5 |
| 20260831100510 | 73 | 250 | 0.0 | 0.0 | 0.00 | 0.00 | 0.00 | 99 | 1005.5 |
| 20260831100009 | 73 | 250 | 0.0 | 0.0 | 0.00 | 0.00 | 0.00 | 99 | 1005.4 |
| 20260831095508 | 73 | 250 | 0.0 | 4.0 | 0.00 | 0.00 | 0.00 | 99 | 1005.5 |
| 20260831094509 | 73 | 132 | 0.0 | 0.0 | 0.00 | 0.00 | 0.00 | 99 | 1005.5 |
| 20260831093509 | 73 | 132 | 0.0 | 5.0 | 0.00 | 0.00 | 0.00 | 99 | 1005.3 |
| 20260831093008 | 73 | 182 | 0.0 | 0.0 | 0.00 | 0.00 | 0.00 | 99 | 1005.4 |
| 20260831092508 | 73 | 182 | 0.0 | 2.0 | 0.00 | 0.00 | 0.00 | 99 | 1005.4 |
| 20260831092008 | 73 | 188 | 2.0 | 3.0 | 0.00 | 0.00 | 0.00 | 99 | 1005.4 |
| 20260831091512 | 73 | 223 | 0.0 | 0.0 | 0.00 | 0.00 | 0.00 | 99 | 1005.4 |
| 20260831091012 | 73 | 223 | 0.0 | 4.0 | 0.00 | 0.00 | 0.00 | 99 | 1005.5 |
| 20260831090508 | 73 | 168 | 0.0 | 0.0 | 0.00 | 0.00 | 0.00 | 99 | 1005.4 |
| 20260831085539 | 73 | 229 | 4.0 | 4.0 | 0.00 | 0.00 | 0.00 | 99 | 1005.3 |
| 20260831085509 | 73 | 229 | 4.0 | 4.0 | 0.00 | 0.00 | 0.00 | 99 | 1005.3 |
| 20260831085008 | 73 | 171 | 0.0 | 0.0 | 0.00 | 0.00 | 0.00 | 99 | 1005.4 |
| 20260831083508 | 73 | 220 | 0.0 | 4.0 | 0.00 | 0.00 | 0.00 | 99 | 1005.4 |
| 20260831083008 | 73 | 195 | 0.0 | 5.0 | 0.00 | 0.00 | 0.00 | 99 | 1005.3 |
| 20260831082008 | 74 | 149 | 0.0 | 0.0 | 0.00 | 0.00 | 0.00 | 99 | 1005.3 |
| 20260831081508 | 74 | 149 | 0.0 | 0.0 | 0.00 | 0.00 | 0.00 | 99 | 1005.1 |
| 20260831081008 | 74 | 149 | 0.0 | 8.0 | 0.00 | 0.00 | 0.00 | 99 | 1005.1 |
| 20260831080508 | 74 | 180 | 3.0 | 6.0 | 0.00 | 0.00 | 0.00 | 99 | 1005.1 |
| 20260831080009 | 74 | 180 | 0.0 | 5.0 | 0.00 | 0.00 | 0.00 | 99 | 1005.1 |
| 20260831075508 | 74 | 184 | 0.0 | 5.0 | 0.00 | 0.00 | 0.00 | 99 | 1005.1 |
| 20260831075008 | 74 | 210 | 5.0 | 6.0 | 0.00 | 0.00 | 0.00 | 99 | 1005.3 |
| 20260831074508 | 74 | 165 | 0.0 | 0.0 | 0.00 | 0.00 | 0.00 | 99 | 1005.2 |
| 20260831074008 | 74 | 165 | 0.0 | 5.0 | 0.00 | 0.00 | 0.00 | 99 | 1005.2 |
| 20260831073508 | 74 | 172 | 0.0 | 0.0 | 0.00 | 0.00 | 0.00 | 99 | 1005.2 |
| 20260831073010 | 74 | 172 | 0.0 | 0.0 | 0.00 | 0.00 | 0.00 | 99 | 1005.2 |
| 20260831072008 | 73 | 172 | 0.0 | 0.0 | 0.00 | 0.00 | 0.00 | 99 | 1005.1 |
| 20260831071009 | 74 | 172 | 0.0 | 4.0 | 0.00 | 0.00 | 0.00 | 99 | 1005.3 |
| 20260831070510 | 73 | 198 | 0.0 | 0.0 | 0.00 | 0.00 | 0.00 | 98 | 1005.2 |
| 20260831070014 | 73 | 198 | 0.0 | 2.0 | 0.00 | 0.00 | 0.00 | 98 | 1005.4 |
| 20260831065008 | 73 | 123 | 0.0 | 5.0 | 0.00 | 0.00 | 0.00 | 98 | 1005.5 |
| 20260831064707 | 73 | 132 | 0.0 | 3.0 | 0.00 | 0.00 | 0.00 | 97 | 1005.5 |
| 20260831064508 | 73 | 132 | 0.0 | 3.0 | 0.00 | 0.00 | 0.00 | 97 | 1005.5 |
| 20260831063508 | 73 | 194 | 0.0 | 0.0 | 0.00 | 0.00 | 0.00 | 97 | 1005.7 |
| 20260831063008 | 74 | 194 | 0.0 | 0.0 | 0.00 | 0.00 | 0.00 | 96 | 1005.7 |
| 20260831062508 | 74 | 194 | 0.0 | 0.0 | 0.00 | 0.00 | 0.00 | 96 | 1005.7 |
| 20260831062011 | 74 | 194 | 0.0 | 0.0 | 0.00 | 0.00 | 0.00 | 96 | 1005.9 |
| 20260831061518 | 74 | 194 | 0.0 | 2.0 | 0.00 | 0.00 | 0.00 | 96 | 1005.9 |
| 20260831060512 | 74 | 194 | 0.0 | 0.0 | 0.00 | 0.00 | 0.00 | 96 | 1005.9 |
| 20260831060009 | 74 | 194 | 0.0 | 0.0 | 0.00 | 0.00 | 0.00 | 95 | 1006.0 |
| 20260831055508 | 74 | 194 | 0.0 | 3.0 | 0.00 | 0.00 | 0.00 | 96 | 1006.1 |
| 20260831055008 | 74 | 161 | 3.0 | 9.0 | 0.00 | 0.00 | 0.00 | 96 | 1006.2 |
| 20260831054510 | 74 | 177 | 0.0 | 7.0 | 0.00 | 0.00 | 0.00 | 95 | 1006.1 |
| 20260831053508 | 74 | 160 | 0.0 | 7.0 | 0.00 | 0.00 | 0.00 | 95 | 1006.2 |
| 20260831053008 | 74 | 98 | 0.0 | 0.0 | 0.00 | 0.00 | 0.00 | 95 | 1006.2 |
| 20260831052646 | 74 | 98 | 0.0 | 5.0 | 0.00 | 0.00 | 0.00 | 95 | 1006.3 |
| 20260831052510 | 74 | 98 | 0.0 | 5.0 | 0.00 | 0.00 | 0.00 | 95 | 1006.3 |
| 20260831052008 | 74 | 137 | 0.0 | 0.0 | 0.00 | 0.00 | 0.00 | 94 | 1006.4 |
| 20260831051508 | 75 | 137 | 0.0 | 5.0 | 0.00 | 0.00 | 0.00 | 95 | 1006.5 |
| 20260831051008 | 75 | 153 | 0.0 | 3.0 | 0.00 | 0.00 | 0.00 | 94 | 1006.5 |
| 20260831050508 | 75 | 144 | 0.0 | 3.0 | 0.00 | 0.00 | 0.00 | 94 | 1006.6 |
| 20260831050010 | 75 | 243 | 0.0 | 0.0 | 0.00 | 0.00 | 0.00 | 94 | 1006.7 |
| 20260831045508 | 75 | 243 | 0.0 | 4.0 | 0.00 | 0.00 | 0.00 | 94 | 1006.7 |
| 20260831045039 | 75 | 178 | 3.0 | 4.0 | 0.00 | 0.00 | 0.00 | 94 | 1006.7 |
| 20260831045008 | 75 | 178 | 3.0 | 4.0 | 0.00 | 0.00 | 0.00 | 94 | 1006.7 |
| 20260831044508 | 75 | 130 | 0.0 | 6.0 | 0.00 | 0.00 | 0.00 | 94 | 1006.7 |
| 20260831043511 | 75 | 144 | 0.0 | 7.0 | 0.00 | 0.00 | 0.00 | 94 | 1006.7 |
| 20260831043008 | 75 | 109 | 0.0 | 5.0 | 0.00 | 0.00 | 0.00 | 93 | 1006.7 |
| 20260831042008 | 75 | 191 | 0.0 | 6.0 | 0.00 | 0.00 | 0.00 | 93 | 1006.7 |
| 20260831041508 | 75 | 181 | 0.0 | 6.0 | 0.00 | 0.00 | 0.00 | 93 | 1006.7 |
| 20260831040508 | 75 | 154 | 3.0 | 7.0 | 0.00 | 0.00 | 0.00 | 93 | 1006.7 |
| 20260831040012 | 75 | 142 | 5.0 | 8.0 | 0.00 | 0.00 | 0.00 | 93 | 1006.7 |
| 20260831035508 | 75 | 153 | 7.0 | 10.0 | 0.00 | 0.00 | 0.00 | 93 | 1006.6 |
| 20260831035008 | 75 | 142 | 3.0 | 11.0 | 0.00 | 0.00 | 0.00 | 92 | 1006.6 |
| 20260831034508 | 76 | 202 | 3.0 | 11.0 | 0.00 | 0.00 | 0.00 | 92 | 1006.6 |
| 20260831033508 | 76 | 94 | 3.0 | 12.0 | 0.00 | 0.00 | 0.00 | 92 | 1006.5 |
| 20260831033008 | 76 | 147 | 4.0 | 11.0 | 0.00 | 0.00 | 0.00 | 92 | 1006.4 |
| 20260831032508 | 76 | 174 | 9.0 | 9.0 | 0.00 | 0.00 | 0.00 | 91 | 1006.6 |
| 20260831032008 | 76 | 178 | 4.0 | 11.0 | 0.00 | 0.00 | 0.00 | 91 | 1006.5 |
| 20260831031508 | 76 | 208 | 6.0 | 9.0 | 0.00 | 0.00 | 0.00 | 91 | 1006.5 |
| 20260831030508 | 76 | 199 | 8.0 | 13.0 | 0.00 | 0.00 | 0.00 | 90 | 1006.4 |
| 20260831030009 | 76 | 168 | 4.0 | 14.0 | 0.00 | 0.00 | 0.00 | 89 | 1006.4 |
| 20260831025508 | 76 | 182 | 7.0 | 12.0 | 0.00 | 0.00 | 0.00 | 89 | 1006.2 |
| 20260831024508 | 77 | 118 | 0.0 | 10.0 | 0.00 | 0.00 | 0.00 | 88 | 1006.2 |
| 20260831023508 | 77 | 196 | 6.0 | 12.0 | 0.00 | 0.00 | 0.00 | 87 | 1006.3 |
| 20260831022508 | 77 | 175 | 6.0 | 12.0 | 0.00 | 0.00 | 0.00 | 86 | 1006.3 |
| 20260831022013 | 77 | 170 | 4.0 | 15.0 | 0.00 | 0.00 | 0.00 | 86 | 1006.4 |
| 20260831021512 | 78 | 174 | 7.0 | 10.0 | 0.00 | 0.00 | 0.00 | 85 | 1006.4 |
| 20260831020019 | 78 | 119 | 3.0 | 7.0 | 0.00 | 0.00 | 0.00 | 84 | 1006.6 |
| 20260831015508 | 78 | 175 | 5.0 | 11.0 | 0.00 | 0.00 | 0.00 | 84 | 1006.6 |
| 20260831015009 | 79 | 151 | 3.0 | 13.0 | 0.00 | 0.00 | 0.00 | 84 | 1006.6 |
| 20260831014513 | 79 | 90 | 0.0 | 13.0 | 0.00 | 0.00 | 0.00 | 83 | 1006.5 |
| 20260831013511 | 79 | 184 | 3.0 | 12.0 | 0.00 | 0.00 | 0.00 | 82 | 1006.7 |
| 20260831013009 | 79 | 171 | 5.0 | 8.0 | 0.00 | 0.00 | 0.00 | 81 | 1006.6 |
| 20260831012510 | 79 | 181 | 7.0 | 8.0 | 0.00 | 0.00 | 0.00 | 80 | 1006.4 |
| 20260831012013 | 80 | 175 | 6.0 | 10.0 | 0.00 | 0.00 | 0.00 | 80 | 1006.4 |
| 20260831010508 | 81 | 177 | 7.0 | 13.0 | 0.00 | 0.00 | 0.00 | 76 | 1006.2 |